User: anonymous   Login
Location: Eindhoven
(51.4416°N, 5.4697°E)
Time: 23:29:24
(UTC+01:00)
Language:

Courier 1B Rocket - Orbit

View from above orbital plane
View from above orbital plane
View from above satellite
View from above satellite

Ground track
Ground track

The orbit data is extracted from the following two-line orbital elements,

1    59U 60013B   19314.96177920 +.00000095 +00000-0 +40199-5 0  9995
2    59 028.2487 265.6805 0189228 243.8884 114.2076 13.52971879916858
Epoch (UTC): 10 November 2019 23:04:57
Eccentricity: 0.0189228
inclination: 28.2487°
perigee height: 920 km
apogee height: 1202 km
right ascension of ascending node: 265.6805°
argument of perigee: 243.8884°
revolutions per day: 13.52971879
mean anomaly at epoch: 114.2076°
orbit number at epoch: 91685

The dashed part of the orbit path shows where the satellite is in the earth's shadow,  

DLR